Погода в Тохтино

Россия / Кировская область     58°38′00″N   48°31′02″E
темп.,
°C
ветер,
м/с
пор.,
м/с
влажн.,
%
обл.,
%
осадки,
мм/ч
давл.,
гПа
погр.,
м
9 декабря, чт
чт900:00−3ю1399100 0.9 1022124
03:00−2сз0299100 2.8 1022151
06:00−3с1198100 1.4 102278
09:00−3с1198100 2.2 1022157
12:00−4ссз2497100 2.4 1022175
15:00−6ссз3696100 4.4 1022264
18:00−7ссз3795100 1.6 1023312
21:00−11ссз38945 1.9 1025227
10 декабря, пт
пт1000:00−16ссз299632 0.0 1027168
03:00−20ссз249933 0.0 102960
06:00−20сз289932 0.0 1031139
09:00−22сз13995 0.0 103356
12:00−16ссз25935 0.0 1035158
15:00−19ссз21995 0.0 103712
18:00−21с211005 0.0 103927
21:00−22с111005 0.0 10409
11 декабря, сб
сб1100:00−23с111005 0.0 104211
03:00−23ссв1110036 0.0 10439
06:00−22ссв111005 0.0 10439
09:00−22сз001005 0.0 10449
12:00−14ю01917 0.0 104456
15:00−18юз01985 0.0 10449
18:00−20ю11987 0.0 10449
21:00−20ю11996 0.0 10459
12 декабря, вс
вс1200:00−21ю11995 0.0 104613
03:00−21ю11995 0.0 104524
06:00−21юз119912 0.0 104511
09:00−20ююз21975 0.0 104530
12:00−13ююз278947 0.0 1043147
15:00−16ю22955 0.0 104328
18:00−16ююз26955 0.0 104284
21:00−17ююз269673 0.0 104186
13 декабря, пн
пн1300:00−18ююз269745 0.0 104090
03:00−18ююз239937 0.0 104039
06:00−18ююз2399100 0.0 103937
09:00−17ююз2497100 0.0 103867
12:00−11ююз2690100 0.0 1037139
15:00−12ююз2793100 0.0 1036125
18:00−10ююз2891100 0.0 1035175
21:00−10ююз2890100 0.0 1034186